Track COSMOS 1019 now! 10-day predictions COSMOS 1019 is classified as:
1 10936U 78056G 21108.61040436 .00000002 00000-0 11491-3 0 9992 2 10936 74.0272 227.1459 0041458 269.4950 101.6169 12.52121088959209